FW3958 Weather Reports


time (UTC)temp
F
wind
direction
speed
knots
gust
knots
rain 1hr
in
rain 24hr
in
rain mn
in
humidity
%
barometer
mb
20260904040003 56 112 0.0 0.9 0.00 1.61 1.61 100 1011.4
20260904034501 56 112 0.0 1.7 0.00 1.61 1.61 100 1011.2
20260904033114 56 114 0.0 2.6 0.00 1.61 1.61 100 1010.9
20260904031558 56 85 0.0 0.0 0.00 1.61 1.61 100 1010.9
20260904030100 56 85 0.0 0.0 0.00 1.61 1.61 100 1010.6
20260904024557 56 43 0.0 0.0 0.00 1.61 1.61 100 1010.6
20260904023055 57 42 0.0 0.9 0.00 1.61 1.61 100 1010.7
20260904021555 57 44 0.9 3.5 0.00 1.61 1.61 99 1010.6
20260904020101 58 99 0.0 3.5 0.00 1.62 1.61 100 1010.7
20260904014643 58 44 0.9 3.5 0.00 1.62 1.61 100 1010.7
20260904013105 58 95 0.0 0.0 0.00 1.62 1.61 99 1010.6
20260904011603 58 95 0.0 0.0 0.00 1.62 1.61 98 1010.7
20260904010058 59 95 0.9 3.5 0.01 1.62 1.61 98 1010.6
20260904004551 58 114 0.0 2.6 0.06 1.62 1.61 97 1010.5
20260904003058 58 114 0.0 2.6 0.06 1.62 1.61 97 1010.3
20260904001550 57 74 0.0 1.7 0.09 1.62 1.61 98 1010.4
20260904000050 58 95 0.9 2.6 0.12 1.61 1.60 98 1010.4
20260903234549 58 15 0.0 3.5 0.07 1.56 1.55 97 1010.5
20260903233049 58 332 0.9 3.5 0.07 1.56 1.55 95 1010.3
20260903231548 60 324 2.6 6.1 0.04 1.53 1.52 91 1010.4
20260903224548 62 342 2.6 6.1 0.00 1.49 1.48 82 1010.0
20260903223046 64 322 2.6 7.8 0.00 1.49 1.48 81 1010.0
20260903221545 65 195 4.3 10.4 0.00 1.49 1.48 73 1010.1
20260903220042 64 151 0.9 3.5 0.00 1.49 1.48 78 1010.0
20260903214544 63 126 0.9 5.2 0.00 1.49 1.48 79 1010.0
20260903213043 63 178 0.0 7.8 0.00 1.49 1.48 78 1010.3
20260903211534 61 126 2.6 6.1 0.00 1.49 1.48 85 1010.3
20260903210033 60 140 2.6 10.4 0.00 1.51 1.48 85 1010.4
20260903204531 60 142 2.6 7.8 0.00 1.51 1.48 85 1010.3
20260903203029 59 151 2.6 8.7 0.00 1.51 1.48 88 1010.3
20260903201532 59 132 1.7 11.3 0.00 1.51 1.48 88 1010.3
20260903200025 58 125 5.2 10.4 0.01 1.51 1.48 87 1010.2
20260903194527 58 112 5.2 11.3 0.01 1.51 1.48 89 1010.2
20260903193021 58 132 3.5 12.2 0.01 1.51 1.48 93 1010.3
20260903191519 57 74 1.7 5.2 0.01 1.51 1.48 94 1010.2
20260903190019 57 155 3.5 10.4 0.00 1.52 1.47 92 1010.4
20260903184517 57 104 1.7 8.7 0.00 1.52 1.47 95 1010.5
20260903183014 57 134 0.9 7.0 0.00 1.52 1.47 98 1010.3
20260903181512 56 101 2.6 8.7 0.00 1.52 1.47 98 1010.4
20260903180035 56 134 1.7 6.1 0.00 1.56 1.47 100 1010.5
20260903174511 56 85 0.0 7.0 0.00 1.56 1.47 100 1010.6
20260903173010 55 85 0.9 7.0 0.04 1.56 1.47 100 1010.5
20260903171512 55 108 0.9 5.2 0.08 1.56 1.47 100 1010.4
20260903170013 53 133 2.6 7.0 0.08 1.60 1.47 100 1010.4
20260903164509 53 100 0.0 0.0 0.12 1.60 1.47 100 1010.4
20260903163010 53 90 0.0 1.7 0.09 1.56 1.43 100 1010.5
20260903161507 53 90 0.0 4.3 0.05 1.52 1.39 100 1010.6
20260903160005 53 120 1.7 3.5 0.08 1.54 1.39 100 1010.5
20260903154507 53 183 0.0 0.0 0.05 1.50 1.35 100 1010.3
20260903153002 53 114 0.0 4.3 0.05 1.49 1.34 100 1010.1
20260903043037 57 200 3.5 9.6 0.00 0.17 0.17 97 1009.2
20260903041538 57 180 5.2 10.4 0.00 0.17 0.17 97 1009.1
20260903040038 57 205 5.2 8.7 0.00 0.17 0.17 98 1009.0